Location: Boiro
(42.6475°N, 8.8834°W)
Time: 03:18:56
(UTC+01:00)

Vanguard 3 - Pass Details

Date: 03 December 2021
Orbit: 508 x 3260 km, 33.3° (Epoch: 19 January)

Event Time Altitude Azimuth Distance (km) Brightness Sun altitude
Exits shadow 02:22:42 17° 122° (ESE) 5,626 11.3 -66.2°
Drops below altitude 10° 02:30:02 10° 100° (E) 6,104 11.7 -65.4°
Sets 02:36:59 0° 84° (E) 6,872 12.1 -64.6°
